CAPE
0 0 0 0 0 0 0 0 0 0 13 11 9 12 36 21 20 36 41 36 21 23
0 0 0 0 0 0 0 0 0 0 0 6 2 1 17 14 11 25 28 20 11 17
1 1 0 0 0 0 0 0 0 0 0 0 1 6 17 16 0 2 7 8 0 1
3 0 0 0 0 0 0 0 0 0 0 0 0 3 6 6 2 0 0 0 0 0
4 6 2 1 0 0 0 0 0 0 0 0 0 0 0 0 1 0 0 0 0 0
0 4 6 8 4 0 0 0 0 0 0 0 0 0 0 0 0 0 0 0 0 0
0 0 1 3 4 7 2 1 0 0 0 0 0 0 0 0 0 0 0 0 0 0
0 0 0 0 1 10 4 2 1 0 0 0 0 0 2 0 0 0 0 0 0 0
0 0 0 0 0 0 1 2 2 2 0 0 0 0 0 0 0 0 0 0 0 0
0 1 1 0 0 0 0 10 4 12 26 14 1 0 0 0 0 0 0 0 0 0
0 0 0 9 34 56 50 36 44 50 35 37 35 3 0 0 0 0 0 0 3 13
0 0 2 1 12 38 37 33 31 37 16 23 37 0 0 0 0 0 0 0 0 0
0 0 1 3 4 0 10 16 3 0 0 0 0 0 1 0 0 1 0 0 0 0
0 0 0 3 4 5 4 4 3 2 0 1 1 0 0 1 0 0 0 0 0 0
CIN
0 0 0 0 0 0 0 0 0 -4 -100 -113 -143 -120 -98 -133 -149 -131 -155 -126 -50 -64
-8 0 0 0 0 0 0 0 0 0 0 -110 -102 -90 -99 -103 -106 -116 -117 -123 -76 -78
-10 -2 0 -9 0 0 0 0 0 0 0 0 -47 -83 -94 -95 -37 -61 -63 -124 0 -56
-1 0 0 0 0 0 0 0 0 0 0 0 -96 -86 -81 -73 -91 0 0 0 0 -36
-2 -3 -4 -12 -11 0 0 0 0 0 0 0 0 0 0 -4 -55 0 0 0 0 0
0 -2 -1 -1 -4 -11 0 0 0 0 0 0 0 0 0 0 0 0 0 0 0 0
0 0 -1 -3 -2 -1 -3 -6 0 0 0 0 0 0 0 0 0 0 0 0 0 0
0 0 0 0 -1 -1 -2 -3 -5 0 0 0 0 0 -4 0 -3 0 0 0 0 0
0 0 0 0 0 0 -2 -1 -1 -7 0 0 0 0 0 0 0 0 0 0 0 0
0 -87 -67 0 0 0 -122 -278 -334 -310 -252 -276 -83 0 0 0 0 0 0 0 0 0
0 0 0 -250 -303 -335 -326 -318 -286 -249 -220 -198 -231 -192 0 0 0 -7 0 0 -65 -155
0 0 0 0 -223 -279 -276 -281 -273 -247 -239 -203 -204 0 0 0 0 0 0 0 0 0
0 0 0 0 0 0 -261 -218 -266 0 0 0 0 0 0 0 0 0 0 0 0 0
0 0 0 0 0 0 0 0 0 0 0 0 0 0 0 0 0 0 0 0 0 0
Wind_Speed
14 10 10 13 10 10 9 8 8 5 6 7 7 6 5 4 5 6 6 5 5 5
13 12 12 15 14 12 11 9 9 8 8 8 8 8 7 5 7 8 10 11 9 9
14 14 13 12 16 15 14 14 13 12 11 11 11 11 10 9 9 10 9 10 14 15
13 15 13 13 13 14 14 15 16 16 15 15 15 15 14 14 13 14 14 14 15 16
14 14 15 15 15 15 16 15 17 16 16 18 17 17 17 18 16 17 17 17 16 17
16 16 16 16 14 16 16 17 17 17 19 18 18 18 18 19 19 19 18 18 18 20
18 18 17 16 16 16 17 17 18 19 19 19 19 20 19 19 20 20 20 19 19 19
18 18 17 17 17 17 18 17 17 17 18 19 20 16 21 21 20 20 20 20 19 19
16 17 18 18 18 19 18 19 18 20 19 19 16 20 19 18 17 18 19 20 19 18
7 16 19 18 18 19 19 17 20 20 18 19 19 19 18 21 19 18 20 19 17 16
14 14 11 16 19 19 17 19 19 19 19 17 17 15 21 22 17 18 19 17 16 17
14 12 12 14 15 17 16 16 15 13 15 17 14 8 5 4 9 14 4 5 6 3
14 14 14 15 15 12 13 12 4 8 7 10 6 10 7 3 4 6 5 6 7 13
14 13 15 13 12 14 10 8 9 11 9 10 10 8 9 5 5 8 7 7 7 8
Wind_Direction
188 185 186 189 187 194 200 207 191 179 178 185 174 178 189 180 178 176 188 155 205 269
196 192 192 195 196 196 196 199 197 191 194 187 190 188 184 187 190 191 201 193 213 224
195 203 202 193 200 201 204 202 199 199 197 200 206 208 199 200 199 198 204 201 210 218
196 202 206 206 201 205 206 207 210 206 204 202 202 202 207 214 212 213 214 215 213 218
199 202 206 211 207 204 210 210 213 215 215 218 216 214 213 217 215 217 219 223 223 225
197 205 212 213 206 211 210 212 213 215 221 221 222 223 222 222 221 224 226 228 227 230
199 204 208 213 217 216 215 215 214 216 219 223 223 223 221 223 225 227 229 226 225 227
196 199 204 208 213 218 220 221 217 219 222 223 226 226 223 222 222 222 226 228 229 229
194 197 201 205 209 214 217 216 220 224 224 223 228 228 215 218 224 227 230 234 233 234
248 202 204 203 205 213 216 211 220 226 223 225 226 223 215 213 227 230 233 234 234 233
1 348 307 214 208 211 207 213 218 223 223 225 230 215 214 212 220 232 236 233 228 231
0 345 337 332 235 217 211 213 214 217 214 220 222 27 334 213 229 240 276 43 26 347
357 356 358 349 338 287 222 218 204 90 63 49 76 22 3 209 155 116 105 66 50 49
4 9 4 1 4 360 8 71 77 81 61 49 29 24 37 65 122 131 111 97 84 77